User: anonymous   Login
Location: Elstree
(51.6403°N, 0.2969°W)
Time: 19:54:06
(UTC+00:00)
Language:

FALCON 9 DEB - Orbit

View from above orbital plane
View from above orbital plane
View from above satellite
View from above satellite

Ground track
Ground track

The orbit data is extracted from the following two-line orbital elements,

1 46085U 20055BL  21136.20727629  .00012512  00000-0  13626-3 0  9995
2 46085  53.0120 356.2789 0011475 135.3049 224.8892 15.63808531 48613
Epoch (UTC): 16 May 2021 04:58:28
Eccentricity: 0.0011475
inclination: 53.0120°
perigee height: 369 km
apogee height: 384 km
right ascension of ascending node: 356.2789°
argument of perigee: 135.3049°
revolutions per day: 15.63808531
mean anomaly at epoch: 224.8892°
orbit number at epoch: 4861

The dashed part of the orbit path shows where the satellite is in the earth's shadow,  

DLR